DW8945 Weather Reports


Display with metric or nautical units.
time (UTC)temp
F
wind
direction
speed
MPH
gust
MPH
rain 1hr
in
rain 24hr
in
rain mn
in
humidity
%
barometer
mb
20260906220350 68 137 0.0 1.0 0.00 0.00 0.00 70 1013.1
20260906215900 68 137 0.0 1.0 0.00 0.00 0.00 70 1013.0
20260906215404 68 137 0.0 2.0 0.00 0.00 0.00 70 1012.9
20260906214846 69 137 0.0 4.0 0.00 0.00 0.00 70 1012.9
20260906214349 69 137 1.0 4.0 0.00 0.00 0.00 69 1012.9
20260906213911 69 138 1.0 4.0 0.00 0.00 0.00 68 1013.0
20260906213352 69 137 0.0 4.0 0.00 0.00 0.00 67 1013.1
20260906212916 70 115 1.0 8.0 0.00 0.00 0.00 65 1013.0
20260906212358 72 117 4.0 8.0 0.00 0.00 0.00 62 1013.1
20260906211859 73 325 0.0 5.0 0.00 0.00 0.00 60 1012.9
20260906211343 73 324 2.0 8.0 0.00 0.00 0.00 60 1012.8
20260906210857 73 302 1.0 6.0 0.00 0.00 0.00 59 1012.8
20260906210418 73 322 1.0 6.0 0.00 0.00 0.00 59 1012.8
20260906205850 73 5 2.0 5.0 0.00 0.00 0.00 59 1012.7
20260906205409 74 319 1.0 5.0 0.00 0.00 0.00 60 1012.7
20260906204850 74 321 1.0 5.0 0.00 0.00 0.00 60 1012.7
20260906204355 73 320 1.0 7.0 0.00 0.00 0.00 60 1012.6
20260906203900 73 322 2.0 7.0 0.00 0.00 0.00 61 1012.7
20260906203343 73 321 1.0 6.0 0.00 0.00 0.00 62 1012.7
20260906202909 73 313 1.0 3.0 0.00 0.00 0.00 61 1012.7
20260906202355 73 313 1.0 3.0 0.00 0.00 0.00 63 1012.7
20260906201902 73 306 1.0 6.0 0.00 0.00 0.00 62 1012.7
20260906201345 72 317 2.0 6.0 0.00 0.00 0.00 63 1012.7
20260906200851 72 298 2.0 7.0 0.00 0.00 0.00 64 1012.8
20260906200347 72 316 2.0 7.0 0.00 0.00 0.00 65 1012.8
20260906195855 71 360 1.0 5.0 0.00 0.00 0.00 65 1012.8
20260906195343 71 317 2.0 6.0 0.00 0.00 0.00 65 1012.9
20260906194846 70 301 3.0 5.0 0.00 0.00 0.00 66 1012.9
20260906194411 70 110 1.0 4.0 0.00 0.00 0.00 64 1012.8
20260906193857 70 327 0.0 3.0 0.00 0.00 0.00 64 1012.8
20260906193423 71 317 0.0 6.0 0.00 0.00 0.00 63 1012.9
20260906192848 71 309 1.0 6.0 0.00 0.00 0.00 64 1012.8
20260906192354 71 327 1.0 6.0 0.00 0.00 0.00 63 1012.9
20260906191857 71 312 3.0 7.0 0.00 0.00 0.00 63 1012.9
20260906191345 71 306 2.0 7.0 0.00 0.00 0.00 62 1013.0
20260906190851 70 323 2.0 6.0 0.00 0.00 0.00 62 1013.2
20260906190410 70 293 2.0 6.0 0.00 0.00 0.00 64 1013.2
20260906185900 70 301 0.0 6.0 0.00 0.00 0.00 65 1013.1
20260906185347 70 294 2.0 6.0 0.00 0.00 0.00 67 1013.2
20260906184849 69 330 0.0 4.0 0.00 0.00 0.00 68 1013.4
20260906184356 69 330 0.0 5.0 0.00 0.00 0.00 69 1013.4
20260906183844 68 331 1.0 5.0 0.00 0.00 0.00 72 1013.4
20260906183347 68 342 0.0 3.0 0.00 0.00 0.00 75 1013.5
20260906182853 67 43 0.0 3.0 0.00 0.00 0.00 76 1013.5
20260906182401 66 44 0.0 3.0 0.00 0.00 0.00 78 1013.7
20260906181844 66 102 0.0 2.0 0.00 0.00 0.00 79 1013.8
20260906181350 66 102 0.0 3.0 0.00 0.00 0.00 80 1013.9
20260906180854 65 132 0.0 2.0 0.00 0.00 0.00 81 1013.9
20260906180352 65 132 0.0 1.0 0.00 0.00 0.00 82 1014.0
20260906175903 65 132 0.0 2.0 0.00 0.00 0.00 82 1014.0
20260906175351 65 132 0.0 4.0 0.00 0.00 0.00 82 1014.0
20260906174853 65 132 1.0 4.0 0.00 0.00 0.00 82 1014.1
20260906174343 65 341 0.0 4.0 0.00 0.00 0.00 80 1014.0
20260906173848 66 350 2.0 4.0 0.00 0.00 0.00 81 1014.1
20260906173350 66 355 0.0 5.0 0.00 0.00 0.00 79 1014.3
20260906172856 67 309 2.0 8.0 0.00 0.00 0.00 76 1014.2
20260906172359 67 123 2.0 8.0 0.00 0.00 0.00 75 1014.1
20260906171901 67 129 1.0 7.0 0.00 0.00 0.00 74 1014.0
20260906171346 67 129 3.0 8.0 0.00 0.00 0.00 74 1014.0
20260906170852 68 85 4.0 8.0 0.00 0.00 0.00 73 1014.0
20260906170347 68 113 1.0 7.0 0.00 0.00 0.00 75 1014.0
20260906165856 67 136 3.0 6.0 0.00 0.00 0.00 75 1014.0
20260906165400 67 145 2.0 8.0 0.00 0.00 0.00 74 1014.1
20260906164901 67 130 2.0 8.0 0.00 0.00 0.00 74 1014.0
20260906164404 68 92 1.0 4.0 0.00 0.00 0.00 71 1014.1
20260906163849 68 102 0.0 5.0 0.00 0.00 0.00 71 1014.0
20260906163350 68 102 2.0 5.0 0.00 0.00 0.00 70 1014.0
20260906162854 68 77 2.0 5.0 0.00 0.00 0.00 70 1014.0
20260906162358 68 320 0.0 5.0 0.00 0.00 0.00 72 1014.1
20260906161915 67 54 0.0 3.0 0.00 0.00 0.00 72 1014.2
20260906161343 67 127 0.0 8.0 0.00 0.00 0.00 71 1014.2
20260906160849 67 128 2.0 8.0 0.00 0.00 0.00 71 1014.3
20260906160356 67 116 1.0 9.0 0.00 0.00 0.00 71 1014.3
20260906155900 67 128 5.0 9.0 0.00 0.00 0.00 71 1014.3
20260906155346 68 311 0.0 5.0 0.00 0.00 0.00 71 1014.4
20260906154846 67 234 1.0 4.0 0.00 0.00 0.00 73 1014.4
20260906154351 67 121 1.0 4.0 0.00 0.00 0.00 75 1014.4
20260906153856 67 119 2.0 4.0 0.00 0.00 0.00 75 1014.4
20260906153357 66 82 0.0 4.0 0.00 0.00 0.00 76 1014.5
20260906152904 66 79 0.0 5.0 0.00 0.00 0.00 75 1014.6
20260906152408 66 299 3.0 5.0 0.00 0.00 0.00 75 1014.6
20260906151850 66 282 0.0 7.0 0.00 0.00 0.00 77 1014.6
20260906151356 66 128 2.0 5.0 0.00 0.00 0.00 76 1014.7
20260906150841 66 313 2.0 6.0 0.00 0.00 0.00 77 1014.7
20260906150357 65 148 0.0 6.0 0.00 0.00 0.00 77 1014.8
20260906145906 65 350 1.0 4.0 0.00 0.00 0.00 77 1014.8
20260906145351 65 78 0.0 5.0 0.00 0.00 0.00 77 1014.9
20260906144915 65 82 1.0 6.0 0.00 0.00 0.00 76 1014.9
20260906144358 65 111 2.0 6.0 0.00 0.00 0.00 76 1014.8
20260906143844 65 103 1.0 6.0 0.00 0.00 0.00 75 1014.8
20260906143346 65 127 3.0 5.0 0.00 0.00 0.00 75 1014.7
20260906142912 65 68 1.0 6.0 0.00 0.00 0.00 75 1014.7
20260906142359 65 132 1.0 8.0 0.00 0.00 0.00 76 1014.6
20260906141843 65 121 5.0 8.0 0.00 0.00 0.00 78 1014.6
20260906141346 64 107 4.0 7.0 0.00 0.00 0.00 79 1014.6
20260906140853 64 108 2.0 5.0 0.00 0.00 0.00 80 1014.5
20260906140351 64 171 0.0 9.0 0.00 0.00 0.00 80 1014.5
20260906135841 64 165 3.0 9.0 0.00 0.00 0.00 79 1014.6
20260906135349 65 126 2.0 5.0 0.00 0.00 0.00 80 1014.6
20260906134853 65 136 2.0 6.0 0.00 0.00 0.00 81 1014.5
20260906134420 64 120 2.0 6.0 0.00 0.00 0.00 81 1014.5
20260906133846 64 125 0.0 4.0 0.00 0.00 0.00 82 1014.5
20260906133351 64 119 1.0 6.0 0.00 0.00 0.00 83 1014.5
20260906132857 64 119 2.0 6.0 0.00 0.00 0.00 82 1014.6
20260906132400 64 281 0.0 5.0 0.00 0.00 0.00 86 1014.5
20260906131847 64 265 0.0 7.0 0.00 0.00 0.00 86 1014.5
20260906131353 64 331 1.0 7.0 0.00 0.00 0.00 88 1014.6
20260906130859 63 355 0.0 4.0 0.00 0.00 0.00 89 1014.6
20260906130355 63 65 1.0 4.0 0.00 0.00 0.00 89 1014.6
20260906125843 63 325 0.0 3.0 0.00 0.00 0.00 90 1014.6
20260906125409 63 338 0.0 2.0 0.00 0.00 0.00 91 1014.6
20260906124853 63 341 0.0 3.0 0.00 0.00 0.00 91 1014.6
20260906124359 63 321 1.0 3.0 0.00 0.00 0.00 92 1014.5
20260906123845 62 59 0.0 2.0 0.00 0.00 0.00 92 1014.5
20260906123348 62 331 0.0 3.0 0.00 0.00 0.00 92 1014.4
20260906122854 61 331 1.0 3.0 0.00 0.00 0.00 92 1014.4
20260906122400 61 340 0.0 4.0 0.00 0.00 0.00 93 1014.4
20260906121845 61 342 0.0 4.0 0.00 0.00 0.00 93 1014.3
20260906121351 61 336 0.0 4.0 0.00 0.00 0.00 93 1014.2
20260906120408 61 328 1.0 3.0 0.00 0.00 0.00 93 1014.2
20260906115850 61 26 0.0 3.0 0.00 0.00 0.00 93 1014.3
20260906115356 61 26 0.0 2.0 0.00 0.00 0.00 93 1014.2
20260906114858 61 26 0.0 1.0 0.00 0.00 0.00 94 1014.1
20260906114344 61 26 0.0 1.0 0.00 0.00 0.00 94 1014.0
20260906113850 60 27 0.0 1.0 0.00 0.00 0.00 94 1014.0
20260906113353 60 27 0.0 3.0 0.00 0.00 0.00 94 1013.9
20260906112857 60 27 0.0 3.0 0.00 0.00 0.00 94 1013.8
20260906112346 60 76 0.0 2.0 0.00 0.00 0.00 94 1013.7
20260906111848 60 90 0.0 1.0 0.00 0.00 0.00 94 1013.7
20260906111354 60 90 0.0 0.0 0.00 0.00 0.00 94 1013.7
20260906110900 60 90 0.0 0.0 0.00 0.00 0.00 94 1013.6
20260906110359 60 90 0.0 0.0 0.00 0.00 0.00 94 1013.5
20260906105848 60 90 0.0 0.0 0.00 0.00 0.00 94 1013.4
20260906105354 60 90 0.0 0.0 0.00 0.00 0.00 94 1013.4
20260906104917 59 90 0.0 0.0 0.00 0.00 0.00 94 1013.4
20260906104359 59 90 0.0 0.0 0.00 0.00 0.00 93 1013.4
20260906103847 59 90 0.0 0.0 0.00 0.00 0.00 93 1013.3
20260906103350 60 90 0.0 0.0 0.00 0.00 0.00 93 1013.2
20260906102857 60 90 0.0 0.0 0.00 0.00 0.00 93 1013.1
20260906102345 60 90 0.0 0.0 0.00 0.00 0.00 93 1013.2
20260906101850 60 90 0.0 0.0 0.00 0.00 0.00 93 1013.0
20260906101417 60 90 0.0 0.0 0.00 0.00 0.00 93 1012.9
20260906100842 60 90 0.0 0.0 0.00 0.00 0.00 93 1013.0
20260906100342 60 90 0.0 0.0 0.00 0.00 0.00 93 1012.9
20260906095854 60 90 0.0 0.0 0.00 0.00 0.00 93 1013.0
20260906095359 60 90 0.0 0.0 0.00 0.00 0.00 93 1013.0
20260906094904 60 90 0.0 0.0 0.00 0.00 0.00 93 1013.1
20260906094349 60 90 0.0 0.0 0.00 0.00 0.00 93 1013.1
20260906093916 60 90 0.0 0.0 0.00 0.00 0.00 93 1013.1
20260906093359 60 90 0.0 0.0 0.00 0.00 0.00 93 1013.1
20260906092846 60 90 0.0 3.0 0.00 0.00 0.00 93 1012.9
20260906092350 60 90 0.0 3.0 0.00 0.00 0.00 93 1012.7
20260906091853 60 90 1.0 3.0 0.00 0.00 0.00 93 1012.6
20260906091359 60 90 0.0 0.0 0.00 0.00 0.00 93 1012.7
20260906090845 60 90 0.0 1.0 0.00 0.00 0.00 93 1012.7
20260906090340 60 90 0.0 5.0 0.00 0.00 0.00 93 1012.8
20260906085849 60 90 0.0 5.0 0.00 0.00 0.00 93 1012.7
20260906085356 60 123 0.0 3.0 0.00 0.00 0.00 93 1012.6
20260906084920 60 121 0.0 1.0 0.00 0.00 0.00 93 1012.6
20260906084344 60 120 0.0 1.0 0.00 0.00 0.00 93 1012.6
20260906083910 60 118 0.0 1.0 0.00 0.00 0.00 93 1012.6
20260906083410 60 118 0.0 1.0 0.00 0.00 0.00 92 1012.5
20260906082855 60 118 0.0 1.0 0.00 0.00 0.00 92 1012.4
20260906082401 60 118 0.0 1.0 0.00 0.00 0.00 92 1012.3
20260906081843 60 118 0.0 1.0 0.00 0.00 0.00 92 1012.3
20260906081410 60 118 0.0 2.0 0.00 0.00 0.00 92 1012.3
20260906080856 60 118 0.0 2.0 0.00 0.00 0.00 91 1012.1
20260906080354 60 118 0.0 1.0 0.00 0.00 0.00 91 1012.1
20260906075844 60 118 0.0 4.0 0.00 0.00 0.00 91 1012.1
20260906075348 60 118 1.0 5.0 0.00 0.00 0.00 91 1012.0
20260906074853 60 113 3.0 7.0 0.00 0.00 0.00 91 1012.0
20260906074358 60 121 2.0 8.0 0.00 0.00 0.00 91 1012.0
20260906073845 61 103 4.0 8.0 0.00 0.00 0.00 91 1012.0
20260906073350 62 115 3.0 5.0 0.00 0.00 0.00 92 1012.0
20260906072854 62 332 0.0 3.0 0.00 0.00 0.00 92 1012.0
20260906072340 62 331 0.0 3.0 0.00 0.00 0.00 92 1011.9
20260906071843 62 330 0.0 3.0 0.00 0.00 0.00 92 1011.9
20260906071350 62 327 0.0 3.0 0.00 0.00 0.00 92 1011.8
20260906070857 62 326 1.0 3.0 0.00 0.00 0.00 92 1011.7
20260906070417 62 339 0.0 3.0 0.00 0.00 0.00 92 1011.8
20260906065907 62 65 0.0 3.0 0.00 0.00 0.00 92 1011.8
20260906065400 62 69 0.0 3.0 0.00 0.00 0.00 92 1011.7
20260906064847 62 107 0.0 2.0 0.00 0.00 0.00 92 1011.8
20260906064353 62 151 0.0 3.0 0.00 0.00 0.00 92 1011.8
20260906063839 62 148 0.0 3.0 0.00 0.00 0.00 92 1011.8
20260906063341 63 317 0.0 3.0 0.00 0.00 0.00 92 1011.8
20260906062847 63 315 1.0 4.0 0.00 0.00 0.00 92 1011.8
20260906062354 63 327 0.0 4.0 0.00 0.00 0.00 91 1011.8
20260906061855 63 312 0.0 3.0 0.00 0.00 0.00 91 1011.8
20260906061340 63 327 0.0 3.0 0.00 0.00 0.00 91 1011.7
20260906060906 63 328 0.0 3.0 0.00 0.00 0.00 91 1011.7
20260906060343 63 326 0.0 3.0 0.00 0.00 0.00 91 1011.7
20260906055854 63 326 0.0 3.0 0.00 0.00 0.00 91 1011.8
20260906055401 63 327 0.0 2.0 0.00 0.00 0.00 91 1011.8
20260906054844 63 327 0.0 3.0 0.00 0.00 0.00 91 1011.8
20260906054351 63 327 0.0 3.0 0.00 0.00 0.00 91 1011.8
20260906053858 63 327 0.0 3.0 0.00 0.00 0.00 91 1011.8
20260906053401 64 229 1.0 3.0 0.00 0.00 0.00 90 1011.8
20260906052907 64 225 0.0 2.0 0.00 0.00 0.00 90 1011.9
20260906052353 64 314 0.0 2.0 0.00 0.00 0.00 90 1011.8
20260906051856 64 314 0.0 2.0 0.00 0.00 0.00 90 1011.9
20260906051344 64 314 0.0 3.0 0.00 0.00 0.00 89 1011.9
20260906050850 64 313 0.0 3.0 0.00 0.00 0.00 89 1012.0
20260906050348 64 311 0.0 3.0 0.00 0.00 0.00 89 1012.0
20260906045859 64 311 0.0 3.0 0.00 0.00 0.00 88 1012.0
20260906045346 64 311 0.0 2.0 0.00 0.00 0.00 88 1012.1
20260906044849 64 310 0.0 2.0 0.00 0.00 0.00 88 1012.1
20260906044350 64 310 0.0 2.0 0.00 0.00 0.00 87 1012.0
20260906043858 64 309 0.0 4.0 0.00 0.00 0.00 87 1012.0
20260906043344 64 293 0.0 4.0 0.00 0.00 0.00 86 1012.0
20260906042913 65 289 0.0 2.0 0.00 0.00 0.00 86 1012.0
20260906042417 65 286 0.0 3.0 0.00 0.00 0.00 86 1011.9
20260906041842 65 286 0.0 3.0 0.00 0.00 0.00 85 1011.9
20260906041349 65 286 0.0 3.0 0.00 0.00 0.00 85 1011.9
20260906040857 65 286 0.0 3.0 0.00 0.00 0.00 85 1011.9
20260906040351 65 136 0.0 2.0 0.00 0.00 0.00 84 1011.9
20260906035855 65 136 0.0 2.0 0.00 0.00 0.00 83 1012.0
20260906035401 65 138 0.0 0.0 0.00 0.00 0.00 82 1011.9
20260906034845 65 138 0.0 0.0 0.00 0.00 0.00 82 1011.8
20260906034351 65 138 0.0 0.0 0.00 0.00 0.00 81 1011.7
20260906033858 65 138 0.0 0.0 0.00 0.00 0.00 80 1011.7
20260906033400 65 138 0.0 0.0 0.00 0.00 0.00 79 1011.7
20260906032846 65 138 0.0 0.0 0.00 0.00 0.00 79 1011.6
20260906032351 65 138 0.0 0.0 0.00 0.00 0.00 79 1011.6
20260906031855 65 138 0.0 1.0 0.00 0.00 0.00 79 1011.5
20260906031400 65 138 0.0 1.0 0.00 0.00 0.00 79 1011.4
20260906030846 66 138 0.0 0.0 0.00 0.00 0.00 79 1011.4
20260906030402 66 138 0.0 1.0 0.00 0.00 0.00 79 1011.5
20260906025847 66 138 0.0 1.0 0.00 0.00 0.00 79 1011.6
20260906025350 66 139 0.0 1.0 0.00 0.00 0.00 78 1011.5
20260906024853 66 138 0.0 1.0 0.00 0.00 0.00 78 1011.5
20260906024400 66 138 0.0 1.0 0.00 0.00 0.00 78 1011.6
20260906023846 66 137 0.0 0.0 0.00 0.00 0.00 77 1011.6
20260906023352 66 137 0.0 0.0 0.00 0.00 0.00 77 1011.7
20260906022858 66 137 0.0 0.0 0.00 0.00 0.00 77 1011.8
20260906022401 66 137 0.0 0.0 0.00 0.00 0.00 77 1011.8
20260906021842 66 137 0.0 0.0 0.00 0.00 0.00 77 1011.6
20260906021348 66 137 0.0 0.0 0.00 0.00 0.00 77 1011.6
20260906020855 66 137 0.0 0.0 0.00 0.00 0.00 76 1011.6
20260906020352 66 137 0.0 0.0 0.00 0.00 0.00 76 1011.7
20260906015842 66 137 0.0 0.0 0.00 0.00 0.00 76 1011.7
20260906015349 66 137 0.0 0.0 0.00 0.00 0.00 76 1011.6
20260906014912 66 137 0.0 0.0 0.00 0.00 0.00 76 1011.6
20260906014357 66 137 0.0 0.0 0.00 0.00 0.00 75 1011.6
20260906013844 66 137 0.0 1.0 0.00 0.00 0.00 75 1011.7
20260906013347 66 137 0.0 1.0 0.00 0.00 0.00 75 1011.8
20260906012853 66 137 0.0 0.0 0.00 0.00 0.00 75 1011.7
20260906012358 66 137 0.0 0.0 0.00 0.00 0.00 75 1011.7
20260906011846 66 137 0.0 0.0 0.00 0.00 0.00 75 1011.7
20260906011352 66 137 0.0 0.0 0.00 0.00 0.00 75 1011.6
20260906010856 66 137 0.0 2.0 0.00 0.00 0.00 75 1011.5
20260906010351 66 137 0.0 3.0 0.00 0.00 0.00 76 1011.6
20260906005903 66 137 0.0 2.0 0.00 0.00 0.00 76 1011.6
20260906005410 66 137 0.0 0.0 0.00 0.00 0.00 76 1011.6
20260906004851 66 137 0.0 1.0 0.00 0.00 0.00 76 1011.6
20260906004418 66 137 0.0 1.0 0.00 0.00 0.00 77 1011.6
20260906003902 66 137 0.0 1.0 0.00 0.00 0.00 77 1011.4
20260906003404 66 137 0.0 1.0 0.00 0.00 0.00 77 1011.4
20260906002848 66 138 0.0 1.0 0.00 0.00 0.00 77 1011.3
20260906002415 66 138 0.0 1.0 0.00 0.00 0.00 76 1011.3
20260906001900 66 138 0.0 0.0 0.00 0.00 0.00 76 1011.3
20260906001407 66 138 0.0 1.0 0.00 0.00 0.00 76 1011.3
20260906000853 66 138 0.0 2.0 0.00 0.00 0.00 75 1011.2
20260906000348 66 137 0.0 2.0 0.00 0.00 0.00 75 1011.1
20260905235857 66 151 0.0 4.0 0.00 0.00 0.00 75 1011.1
20260905235342 66 151 0.0 4.0 0.00 0.00 0.00 75 1011.1
20260905234844 66 117 1.0 4.0 0.00 0.00 0.00 75 1011.1
20260905234350 66 114 0.0 6.0 0.00 0.00 0.00 76 1011.0
20260905233857 66 96 1.0 6.0 0.00 0.00 0.00 75 1011.0
20260905233420 66 109 1.0 5.0 0.00 0.00 0.00 75 1010.9
20260905232844 67 149 1.0 3.0 0.00 0.00 0.00 75 1010.9
20260905232347 67 163 0.0 3.0 0.00 0.00 0.00 76 1010.8
20260905231853 67 163 0.0 2.0 0.00 0.00 0.00 76 1010.8
20260905231359 67 163 0.0 4.0 0.00 0.00 0.00 76 1010.8
20260905230841 67 165 1.0 4.0 0.00 0.00 0.00 76 1010.7
20260905230358 67 82 2.0 5.0 0.00 0.00 0.00 77 1010.7
20260905225849 67 77 2.0 5.0 0.00 0.00 0.00 77 1010.6
20260905225354 67 130 2.0 6.0 0.00 0.00 0.00 77 1010.6
20260905224857 67 141 1.0 4.0 0.00 0.00 0.00 77 1010.6
20260905224343 67 80 1.0 5.0 0.00 0.00 0.00 77 1010.6
20260905223911 68 137 1.0 5.0 0.00 0.00 0.00 78 1010.7
20260905223350 68 111 1.0 4.0 0.00 0.00 0.00 78 1010.5
20260905222854 68 100 2.0 4.0 0.00 0.00 0.00 77 1010.5
20260905222419 68 148 2.0 5.0 0.00 0.00 0.00 78 1010.5
20260905221922 68 92 2.0 5.0 0.00 0.00 0.00 77 1010.4
20260905221343 68 107 0.0 5.0 0.00 0.00 0.00 78 1010.3
20260905220849 68 107 1.0 7.0 0.00 0.00 0.00 78 1010.4